Home   Weather   Traiskirchen   Past weeks

Flag for Austria Past Weather in Traiskirchen, Lower Austria, Austria — Yesterday and Last 2 Weeks

42 °F

Passing clouds.

Feels Like: N/A
Forecast: 37 / 58 °F
Wind: N/A

Location: Wien / Schwechat-Flughafen

Current Time: Oct 23, 2016 at 3:26:32 AM

Latest Report: Oct 23, 2016 at 2:00 AM

Visibility: 7 mi

Pressure: 30.04 "Hg

Humidity: 93%

Dew Point: 40 °F

Location of TraiskirchenLocation

Past Weather in Traiskirchen — Graph


Traiskirchen Temperature Yesterday

Maximum temperature yesterday: 54 °F (at 4:00 PM)
Minimum temperature yesterday: 37 °F (at 8:00 AM)
Average temperature yesterday: 46 °F

High & Low Weather Summary for the Past Weeks

High65 °F (Oct 16, 3:00 PM)100% (Oct 20, 11:00 PM)30.37 "Hg (Oct 20, 11:00 PM)
Low33 °F (Oct 8, 8:00 AM)53% (Oct 22, 2:00 PM)29.91 "Hg (Oct 12, 4:00 AM)
Average48 °F86%30.10 "Hg
* Reported Oct 8 2:00 AM — Oct 23 2:00 AM, Traiskirchen, Weather by CustomWeather, © 2016

Note: Actual official high and low records may vary slightly from our data, if they occured in-between our weather recording intervals... More about our weather records


Traiskirchen Weather History for the Previous 24 Hours

Scroll right to see more
Time TempWeatherWind HumidityBarometerVisibility
2:00 AM
Sun, Oct 23
42 °FPassing clouds.N/A93%30.04 "Hg7 mi
1:00 AM41 °FPassing clouds.3 mph93%30.04 "Hg7 mi
12:00 AM42 °FPassing clouds.3 mph88%30.04 "Hg17 mi
11:00 PM
Sat, Oct 22
43 °FPassing clouds.5 mph88%30.05 "Hg19 mi
10:00 PM45 °FPassing clouds.6 mph87%30.03 "Hg19 mi
9:00 PM44 °FPassing clouds.6 mph89%30.02 "Hg19 mi
8:00 PM46 °FPassing clouds.6 mph86%30.01 "Hg28 mi
7:00 PM49 °FPassing clouds.6 mph80%30.00 "Hg28 mi
6:00 PM51 °FPassing clouds.6 mph73%29.99 "Hg31 mi
5:00 PM53 °FPassing clouds.6 mph66%29.98 "Hg28 mi
4:00 PM54 °FPassing clouds.5 mph64%29.99 "Hg19 mi
3:00 PM53 °FPassing clouds.6 mph59%30.01 "Hg22 mi
2:00 PM53 °FPassing clouds.N/A53%30.02 "Hg2 mi
1:00 PM51 °FPassing clouds.N/A65%30.03 "Hg6 mi
12:00 PM50 °FPassing clouds.N/A78%30.04 "Hg7 mi
11:00 AM47 °FPassing clouds.N/A83%30.04 "Hg6 mi
10:00 AM43 °FScattered clouds.N/A91%30.06 "Hg5 mi
9:00 AM40 °FScattered clouds.N/A93%30.06 "Hg3 mi
8:00 AM37 °FPassing clouds.N/A95%30.05 "Hg2 mi
7:00 AM39 °FPassing clouds.N/A91%30.03 "Hg4 mi
6:00 AM40 °FPassing clouds.N/A97%30.03 "Hg4 mi
5:00 AM42 °FPassing clouds.N/A92%30.02 "Hg5 mi
4:00 AM44 °FPassing clouds.6 mph89%30.02 "Hg6 mi
3:00 AM45 °FPassing clouds.5 mph87%30.01 "Hg7 mi
Weather by CustomWeather, © 2016

See weather overviewHow to use our weather pages